Station EMAT2 - 8773146 - Matagorda City, TX Image indicating link to RSS feed of recent meteorological observations for station EMAT2


Conditions at EMAT2 as of
(3:30 am CDT)
0830 GMT on 04/23/2024:
     

Click on the graph icon in the table below to see a time series plot of the last five days of that observation.

5-day plot - Wind Direction Wind Direction (WDIR): SE ( 140 deg true )
5-day plot - Wind Speed Wind Speed (WSPD): 8.9 kts
5-day plot - Wind Gust Wind Gust (GST): 11.1 kts
5-day plot - Atmospheric Pressure Atmospheric Pressure (PRES):30.06 in
5-day plot - Air Temperature Air Temperature (ATMP): 66.7 °F
5-day plot - Water Temperature Water Temperature (WTMP): 71.4 °F
5-day plot - Wind Speed at 10 Meters Wind Speed at 10 meters (WSPD10M): 9.7 kts
5-day plot - Wind Speed at 20 Meters Wind Speed at 20 meters (WSPD20M): 9.7 kts
5-day plot -  Wind Speed, Wind Gust and Atmospheric Pressure Combined plot of Wind Speed, Gust, and Air Pressure
Previous observations
TIME
(CDT)
5-day plot - Wind Direction
WDIR
 
5-day plot - Wind Speed
WSPD
kts
5-day plot - Wind Gust
GST
kts
5-day plot - Wave Height
WVHT
ft
5-day plot - Dominant Wave Period
DPD
sec
5-day plot - Average Wave Period
APD
sec
5-day plot - Mean Wave Direction
MWD
 
5-day plot - Atmospheric Pressure
PRES
in
5-day plot - Pressure Tendency
PTDY
in
5-day plot - Air Temperature
ATMP
°F
5-day plot - Water Temperature
WTMP
°F
5-day plot - Dew Point
DEWP
°F
5-day plot - Salinity
SAL
psu
5-day plot - Visibility
VIS
nmi
5-day plot - Tide (above MLLW)
TIDE
ft
2024-04-23 03:24 am SE 8.9 11.1----30.06- 66.7 71.4----
2024-04-23 03:18 amESE 8.9 11.1----30.06- 66.7 71.4----
2024-04-23 03:12 am SE 8.0 9.9----30.06- 66.6 71.4----
2024-04-23 03:06 am SE 8.0 12.0----30.06- 66.6 71.4----
2024-04-23 03:00 am SE 7.0 11.1----30.07-0.05 66.6 71.4----
2024-04-23 02:54 am SE 8.9 9.9----30.07- 66.6 71.4----
2024-04-23 02:48 amESE 8.9 11.1----30.07- 66.6 71.4----
2024-04-23 02:42 amESE 9.9 11.1----30.07- 66.6 71.4----
2024-04-23 02:36 am SE 9.9 12.0----30.07- 66.6 71.2----
2024-04-23 02:30 am SE 8.0 11.1----30.07- 66.4 71.2----
2024-04-23 02:24 am SE 8.0 11.1----30.08- 66.4 71.2----
2024-04-23 02:18 am SE 9.9 12.0----30.08- 66.6 71.4----
2024-04-23 02:12 am SE 9.9 12.0----30.08- 66.6 71.4----
2024-04-23 02:06 amESE 8.0 11.1----30.08- 66.4 71.6----
2024-04-23 02:00 amESE 8.0 12.0----30.09-0.05 66.4 71.6----
2024-04-23 01:54 am SE 8.0 11.1----30.09- 66.4 71.6----
2024-04-23 01:48 amESE 8.0 11.1----30.09- 66.2 71.6----
2024-04-23 01:42 amESE 8.9 12.0----30.09- 66.4 71.6----
2024-04-23 01:36 am SE 8.9 11.1----30.09- 66.2 71.6----
2024-04-23 01:30 am SE 8.0 12.0----30.10- 66.2 71.8----
2024-04-23 01:24 am SE 7.0 12.0----30.10- 66.2 71.8----
2024-04-23 01:18 am SE 8.9 12.0----30.10- 66.4 71.8----
2024-04-23 01:12 amESE 8.0 12.0----30.10- 66.2 71.8----
2024-04-23 01:06 am SE 8.9 12.0----30.11- 66.2 71.8----
2024-04-23 01:00 am SE 9.9 12.0----30.11-0.02 66.2 72.0----
2024-04-23 12:54 am SE 8.9 11.1----30.11- 66.2 72.0----
2024-04-23 12:48 am SE 8.0 12.0----30.11- 66.2 72.0----
2024-04-23 12:42 amESE 8.9 13.0----30.11- 66.2 72.0----
2024-04-23 12:36 amESE 8.9 11.1----30.11- 66.0 72.1----
2024-04-23 12:30 amESE 8.9 12.0----30.12- 66.0 72.1----
2024-04-23 12:24 am SE 8.9 11.1----30.12- 66.0 72.1----
2024-04-23 12:18 amESE 7.0 9.9----30.12- 65.8 72.3----
2024-04-23 12:12 amESE 8.0 12.0----30.12- 65.8 72.3----
2024-04-23 12:06 amESE 8.9 12.0----30.12- 65.8 72.3----
2024-04-23 12:00 amESE 8.0 12.0----30.12+0.00 66.0 72.3----
2024-04-22 11:54 pmESE 8.0 13.0----30.12- 66.0 72.5----
2024-04-22 11:48 pmESE 9.9 12.0----30.12- 65.8 72.5----
2024-04-22 11:42 pmESE 8.0 11.1----30.12- 65.8 72.5----
2024-04-22 11:36 pmESE 8.9 12.0----30.12- 65.8 72.5----
2024-04-22 11:30 pmESE 7.0 11.1----30.13- 65.8 72.7----
2024-04-22 11:24 pmESE 8.9 12.0----30.13- 65.8 72.7----
2024-04-22 11:18 pm E 8.9 11.1----30.13- 65.8 72.7----
2024-04-22 11:12 pmESE 8.0 11.1----30.13- 65.8 72.7----
2024-04-22 11:06 pmESE 8.0 11.1----30.14- 65.7 72.7----
2024-04-22 11:00 pm E 8.0 9.9----30.14+0.01 65.8 72.7----
2024-04-22 10:54 pmESE 8.9 11.1----30.14- 65.8 72.7----
2024-04-22 10:48 pm E 8.0 11.1----30.14- 65.8 72.7----
2024-04-22 10:42 pm E 8.0 11.1----30.14- 65.7 72.7----
2024-04-22 10:36 pmESE 8.9 12.0----30.14- 65.7 72.7----
2024-04-22 10:30 pmESE 8.0 11.1----30.14- 65.8 72.7----
2024-04-22 10:24 pm E 7.0 12.0----30.13- 65.7 72.7----
2024-04-22 10:18 pm E 8.0 9.9----30.13- 65.8 72.9----
2024-04-22 10:12 pmESE 8.9 13.0----30.13- 65.8 72.9----
2024-04-22 10:06 pmESE 8.9 12.0----30.13- 65.8 72.9----
2024-04-22 10:00 pmESE 9.9 12.0----30.13+0.00 65.8 73.0----
2024-04-22 09:54 pm E 8.9 12.0----30.12- 65.7 73.4----
2024-04-22 09:48 pmESE 11.1 14.0----30.12- 65.7 73.4----
2024-04-22 09:42 pm E 9.9 13.0----30.12- 65.7 73.2----
2024-04-22 09:36 pm E 9.9 12.0----30.12- 65.7 73.4----
2024-04-22 09:30 pm E 9.9 13.0----30.12- 65.7 73.2----
2024-04-22 09:24 pm E 8.9 12.0----30.12- 65.7 73.2----
2024-04-22 09:18 pm E 9.9 14.0----30.12- 65.7 73.4----
2024-04-22 09:12 pm E 7.0 14.0----30.12- 65.5 73.8----
2024-04-22 09:06 pm E 9.9 13.0----30.12- 65.5 73.8----
2024-04-22 09:00 pm E 9.9 13.0----30.13-0.01 65.5 73.8----
2024-04-22 08:54 pm E 8.0 12.0----30.13- 65.5 73.8----
2024-04-22 08:48 pm E 8.9 12.0----30.13- 65.5 73.8----
2024-04-22 08:42 pmESE 8.0 11.1----30.13- 65.3 73.8----
2024-04-22 08:36 pm E 9.9 12.0----30.13- 65.3 73.8----
2024-04-22 08:30 pm E 7.0 15.0----30.13- 65.3 73.9----
2024-04-22 08:24 pmENE 9.9 15.0----30.12- 65.5 73.9----
2024-04-22 08:18 pm E 8.9 11.1----30.12-- 73.9----
2024-04-22 08:12 pm E 8.9 12.0----30.12-- 73.9----
2024-04-22 08:06 pm E 8.0 11.1----30.13-- 73.9----
2024-04-22 08:00 pm E 8.0 11.1----30.13-0.02 65.5 73.9----
2024-04-22 07:54 pm E 8.0 11.1----30.13- 65.3 73.9----
2024-04-22 07:48 pm E 7.0 11.1----30.13-- 73.9----
2024-04-22 07:42 pm E 8.0 9.9----30.13-- 73.9----
2024-04-22 07:36 pm E 8.0 12.0----30.13-- 73.9----
2024-04-22 07:30 pm E 8.0 13.0----30.12- 65.3 73.9----
2024-04-22 07:24 pm E 8.0 12.0----30.12- 65.5 73.9----
2024-04-22 07:18 pm--------- 65.3 73.9----
2024-04-22 07:12 pm--------- 65.5 73.9----
2024-04-22 07:06 pm--------- 65.5 73.9----
2024-04-22 07:00 pm E 8.9 12.0----30.13-0.03 65.5 74.1----
2024-04-22 06:54 pm E 8.9 12.0----30.13- 65.8 74.1----
2024-04-22 06:48 pm E 8.0 12.0----30.13- 66.0 74.1----
2024-04-22 06:42 pm E 8.0 12.0----30.14- 65.8 74.1----
2024-04-22 06:36 pm E 8.9 13.0----30.13- 66.0 74.1----
2024-04-22 06:30 pm E 8.0 9.9----30.14- 66.2 74.1----
2024-04-22 06:24 pm E 8.9 12.0----30.14- 66.4 74.1----
2024-04-22 06:18 pm E 8.9 12.0----30.14- 66.0 74.1----
2024-04-22 06:12 pm E 8.0 13.0----30.14- 66.4 74.1----
2024-04-22 06:06 pm E 9.9 12.0----30.14- 66.2 74.1----
2024-04-22 06:00 pm E 8.9 12.0----30.14-0.04 66.2 74.1----
2024-04-22 05:54 pm E 9.9 12.0----30.14- 66.7 74.1----
2024-04-22 05:48 pm E 8.9 11.1----30.14- 66.2 73.9----
2024-04-22 05:42 pm E 7.0 12.0----30.14- 66.2 73.9----
2024-04-22 05:36 pm E 8.0 12.0----30.15- 66.2 73.9----
2024-04-22 05:30 pm E 8.9 12.0----30.14- 65.8 73.8----
2024-04-22 05:24 pm E 11.1 14.0----30.14- 66.0 73.8----
2024-04-22 05:18 pm E 11.1 13.0----30.14- 66.0 73.8----
2024-04-22 05:12 pm E 11.1 14.0----30.14- 66.4 73.8----
2024-04-22 05:06 pm E 11.1 14.0----30.14- 66.2 73.8----
2024-04-22 05:00 pm E 8.9 12.0----30.14-0.04 66.4 73.6----
2024-04-22 04:54 pm E 9.9 13.0----30.15- 65.8 73.6----
2024-04-22 04:48 pm E 8.9 13.0----30.15- 66.4 73.6----
2024-04-22 04:42 pm E 9.9 13.0----30.15- 66.2 73.6----
2024-04-22 04:36 pm E 9.9 14.0----30.15- 66.4 73.6----
2024-04-22 04:30 pm E 12.0 17.1----30.15- 66.0 73.6----
2024-04-22 04:24 pm E 9.9 12.0----30.15- 66.2 73.6----
2024-04-22 04:18 pm E 9.9 14.0----30.16- 66.0 73.4----
2024-04-22 04:12 pm E 11.1 14.0----30.16- 66.0 73.4----
2024-04-22 04:06 pm E 13.0 15.9----30.16- 66.2 73.2----
2024-04-22 04:00 pm E 11.1 15.0----30.16-0.05 66.6 73.2----
2024-04-22 03:54 pm E 12.0 15.0----30.16- 66.4 73.2----
2024-04-22 03:48 pm E 12.0 15.0----30.16- 66.7 73.2----
2024-04-22 03:42 pm E 12.0 15.9----30.16- 66.9 73.2----
2024-04-22 03:36 pm E 11.1 14.0----30.17- 66.9 73.0----
2024-04-22 03:30 pm E 12.0 15.9----30.17- 66.9 73.0----
2024-04-22 03:24 pm E 12.0 15.9----30.17- 66.6 73.0----
2024-04-22 03:18 pm E 12.0 15.9----30.18- 66.4 73.0----
2024-04-22 03:12 pm E 11.1 15.0----30.18- 66.9 73.0----
2024-04-22 03:06 pm E 11.1 15.0----30.18- 66.4 73.0----
2024-04-22 03:00 pm E 12.0 15.9----30.18-0.04 66.2 73.0----
2024-04-22 02:54 pm E 13.0 15.9----30.18- 66.2 73.0----
2024-04-22 02:48 pm E 12.0 15.9----30.19- 66.6 73.0----
2024-04-22 02:42 pm E 13.0 15.9----30.19- 66.6 73.2----
2024-04-22 02:36 pm E 13.0 18.1----30.18- 67.1 73.2----
2024-04-22 02:30 pm E 14.0 18.1----30.19- 66.7 73.2----
2024-04-22 02:24 pm E 12.0 15.9----30.19- 66.7 73.2----
2024-04-22 02:18 pm E 12.0 15.0----30.19- 67.5 73.2----
2024-04-22 02:12 pm E 13.0 18.1----30.19- 67.1 73.2----
2024-04-22 02:06 pm E 14.0 18.1----30.19- 67.1 73.4----
2024-04-22 02:00 pm E 15.0 19.0----30.19-0.04 66.9 73.4----
2024-04-22 01:54 pmENE 15.0 18.1----30.19- 66.7 73.4----
2024-04-22 01:48 pm E 15.0 19.0----30.19- 67.1 73.4----
2024-04-22 01:42 pm E 14.0 18.1----30.19- 66.9 73.4----
2024-04-22 01:36 pm E 14.0 17.1----30.20- 67.1 73.6----
2024-04-22 01:30 pm E 14.0 17.1----30.20- 67.3 73.8----
2024-04-22 01:24 pm E 13.0 17.1----30.21- 67.3 73.8----
2024-04-22 01:18 pm E 12.0 15.9----30.21- 67.5 73.8----
2024-04-22 01:12 pm E 13.0 17.1----30.21- 67.3 73.8----
2024-04-22 01:06 pm E 13.0 15.9----30.22- 66.9 73.8----
2024-04-22 01:00 pm E 13.0 15.9----30.21-0.03 67.3 73.8----
2024-04-22 12:54 pm E 12.0 17.1----30.22- 67.5 73.8----
2024-04-22 12:48 pm E 13.0 17.1----30.22- 67.3 73.8----
2024-04-22 12:42 pm E 13.0 17.1----30.21- 67.5 73.8----
2024-04-22 12:36 pm E 14.0 15.0----30.22- 67.3 73.8----
2024-04-22 12:30 pm E 13.0 17.1----30.22- 67.3 73.6----
2024-04-22 12:24 pmENE 15.0 18.1----30.22- 67.1 73.6----
2024-04-22 12:18 pmENE 15.0 19.0----30.22- 67.1 73.4----
2024-04-22 12:12 pm E 13.0 17.1----30.21- 67.3 73.2----
2024-04-22 12:06 pmENE 17.1 20.0----30.22- 66.7 73.2----
2024-04-22 12:00 pmENE 17.1 19.0----30.22-0.02 66.9 73.2----
2024-04-22 11:54 amENE 15.9 19.0----30.22- 67.1 73.2----
2024-04-22 11:48 amENE 15.0 20.0----30.22- 67.1 73.2----
2024-04-22 11:42 amENE 17.1 19.0----30.22- 66.6 73.2----
2024-04-22 11:36 amENE 17.1 20.0----30.22- 66.6 73.2----
2024-04-22 11:30 am E 14.0 19.0----30.22- 66.9 73.2----
2024-04-22 11:24 amENE 18.1 20.0----30.22- 66.6 73.2----
2024-04-22 11:18 amENE 15.0 20.0----30.22- 66.9 73.2----
2024-04-22 11:12 amENE 17.1 21.0----30.22- 66.7 73.2----
2024-04-22 11:06 amENE 14.0 18.1----30.23- 66.9 73.2----
2024-04-22 11:00 amENE 17.1 20.0----30.23+0.01 66.6 73.2----
2024-04-22 10:54 amENE 15.9 18.1----30.23- 66.4 73.2----
2024-04-22 10:48 amENE 15.0 18.1----30.22- 66.6 73.2----
2024-04-22 10:42 amENE 13.0 17.1----30.23- 66.9 73.2----
2024-04-22 10:36 am NE 15.9 18.1----30.22- 66.6 73.2----
2024-04-22 10:30 amENE 14.0 19.0----30.23- 66.0 73.0----
2024-04-22 10:24 am NE 13.0 19.0----30.22- 66.4 73.0----
2024-04-22 10:18 am NE 13.0 15.9----30.23- 66.2 73.0----
2024-04-22 10:12 am NE 11.1 14.0----30.23- 66.0 73.0----
2024-04-22 10:06 am NE 9.9 15.0----30.23- 66.0 73.2----
2024-04-22 10:00 amNNE 9.9 13.0----30.24+0.04 65.5 73.2----
2024-04-22 09:54 am NE 9.9 14.0----30.24- 64.9 73.2----
2024-04-22 09:48 amNNE 8.0 12.0----30.25- 64.6 73.2----
2024-04-22 09:42 amNNE 7.0 13.0----30.25- 64.4 73.2----
2024-04-22 09:36 amNNE 8.9 13.0----30.25- 63.9 73.2----
2024-04-22 09:30 amNNE 8.0 14.0----30.24- 64.0 73.2----
2024-04-22 09:24 amNNE 8.0 12.0----30.24- 63.3 73.4----
2024-04-22 09:18 amNNE 8.0 13.0----30.24- 63.3 73.4----
2024-04-22 09:12 amNNE 8.9 13.0----30.24- 62.8 73.4----
2024-04-22 09:06 amNNE 8.9 13.0----30.23- 62.6 73.4----
2024-04-22 09:00 am N 9.9 14.0----30.23+0.04 61.5 73.4----
2024-04-22 08:54 am N 7.0 12.0----30.23- 61.2 73.4----
2024-04-22 08:48 am N 8.9 12.0----30.23- 60.6 73.4----
2024-04-22 08:42 am N 8.9 12.0----30.23- 60.3 73.4----
2024-04-22 08:36 am N 8.9 12.0----30.23- 59.9 73.4----
2024-04-22 08:30 am N 8.9 12.0----30.23- 59.5 73.4----
2024-04-22 08:24 am N 8.0 9.9----30.23- 58.6 73.4----
2024-04-22 08:18 am N 7.0 11.1----30.22- 58.3 73.4----
2024-04-22 08:12 am N 8.9 9.9----30.22- 57.2 73.4----
2024-04-22 08:06 am N 8.0 9.9----30.22- 56.5 73.4----
2024-04-22 08:00 am N 7.0 8.0----30.22+0.04 55.8 73.4----
2024-04-22 07:54 am N 6.0 8.0----30.21- 55.2 73.4----
2024-04-22 07:48 am N 6.0 8.0----30.21- 54.3 73.4----
2024-04-22 07:42 am N 7.0 8.9----30.21- 54.0 73.4----
2024-04-22 07:36 am N 6.0 8.0----30.21- 54.0 73.4----
2024-04-22 07:30 am N 6.0 8.0----30.21- 53.4 73.4----
2024-04-22 07:24 am N 6.0 8.0----30.20- 52.9 73.4----
2024-04-22 07:18 am N 7.0 8.0----30.20- 52.3 73.4----
2024-04-22 07:12 am N 6.0 8.0----30.20- 52.0 73.4----
2024-04-22 07:06 am N 7.0 8.0----30.20- 51.8 73.6----
2024-04-22 07:00 am N 7.0 8.0----30.20+0.02 51.3 73.6----
2024-04-22 06:54 am N 7.0 8.0----30.20- 51.1 73.8----
2024-04-22 06:48 am N 7.0 8.0----30.19- 50.9 73.8----
2024-04-22 06:42 am N 7.0 8.0----30.19- 51.3 73.8----
2024-04-22 06:36 amNNW 6.0 6.0----30.20- 51.8 73.8----
2024-04-22 06:30 amNNW 5.1 7.0----30.20- 51.8 73.8----
2024-04-22 06:24 amNNW 5.1 7.0----30.20- 51.8 73.8----
2024-04-22 06:18 amNNW 6.0 7.0----30.19- 51.4 73.8----
2024-04-22 06:12 amNNW 6.0 7.0----30.19- 52.0 73.8----
2024-04-22 06:06 amNNW 6.0 7.0----30.19- 52.2 73.8----
2024-04-22 06:00 amNNW 5.1 7.0----30.19+0.00 52.2 73.8----
2024-04-22 05:54 amNNW 5.1 6.0----30.19- 52.3 73.8----
2024-04-22 05:48 amNNW 6.0 7.0----30.19- 51.8 73.8----
2024-04-22 05:42 amNNW 5.1 7.0----30.19- 52.0 73.8----
2024-04-22 05:36 amNNW 5.1 6.0----30.19- 52.2 73.8----
2024-04-22 05:30 amNNW 5.1 6.0----30.19- 52.2 73.8----
2024-04-22 05:24 amNNW 5.1 6.0----30.19- 52.0 73.8----
2024-04-22 05:18 amNNW 4.1 5.1----30.18- 52.2 73.8----
2024-04-22 05:12 am N 5.1 6.0----30.18- 51.3 73.8----
2024-04-22 05:06 am N 5.1 6.0----30.17- 51.1 73.8----
2024-04-22 05:00 am N 5.1 6.0----30.17-0.02 51.3 73.8----
2024-04-22 04:54 am N 6.0 6.0----30.17- 51.8 73.8----
2024-04-22 04:48 amNNW 5.1 6.0----30.18- 52.5 73.6----
2024-04-22 04:42 am N 5.1 6.0----30.18- 52.7 73.6----
2024-04-22 04:36 am N 4.1 5.1----30.18- 53.1 73.6----
2024-04-22 04:30 am N 5.1 5.1----30.18- 53.2 73.4----
2024-04-22 04:24 am N 5.1 5.1----30.18- 53.1 73.4----
2024-04-22 04:18 am N 5.1 5.1----30.18- 52.9 73.4----
2024-04-22 04:12 am N 5.1 6.0----30.18- 52.7 73.4----
2024-04-22 04:06 am N 5.1 6.0----30.17- 52.7 73.4----
2024-04-22 04:00 am N 5.1 6.0----30.18-0.02 52.9 73.2----
2024-04-22 03:54 am N 6.0 6.0----30.18- 52.7 73.2----